Weather History for Palm Springs, CA

Change the Weather History Date:

Friday, March 8, 2013

  Actual Average Record
Temperature  
Mean Temperature 56 °F 64 °F  
Max Temperature 63 °F 77 °F 91 °F (2004)
Min Temperature 49 °F 52 °F 33 °F (1942)
Degree Days  
Heating Degree Days 9 3  
Month to date heating degree days 15 24  
Since 1 July heating degree days 753 802  
Cooling Degree Days 0 2  
Month to date cooling degree days 22 14  
Year to date cooling degree days 34 41  
Growing Degree Days 5 (Base 50)    
Moisture  
Dew Point 37 °F    
Average Humidity 55    
Maximum Humidity 77    
Minimum Humidity 32    
Precipitation  
Precipitation 0.04 in 0.04 in 0.61 in (1968)
Month to date precipitation 0.04 0.36  
Year to date precipitation 0.97 2.39  
Since 1 July precipitation 2.19 5.19  
Snow  
Snow 0.00 in - - ()
Month to date snowfall 0.0  
Year to date snowfall 0.0  
Since 1 July snowfall 0.0  
Snow Depth 0.00 in    
Sea Level Pressure  
Sea Level Pressure 29.82 in    
Wind  
Wind Speed 7 mph (North)    
Max Wind Speed 29 mph    
Max Gust Speed 36 mph    
Visibility 10 miles    
Events Rain    
T = Trace of Precipitation, MM = Missing Value Source: NWS Daily Summary

Daily Weather History Graph

Daily Weather History Graph

Search for Another Location

Airport:

Trip Planner

Search our weather history database for the weather conditions in past years. The results will help you decide how hot, cold, wet, or windy it might be!

Date:

Astronomy

Mar. 08, 2013 Rise Set
Actual Time 6:05 AM PST 5:48 PM PST
Civil Twilight 5:40 AM PST 6:13 PM PST
Nautical Twilight 5:11 AM PST 6:42 PM PST
Astronomical Twilight 4:42 AM PST 7:11 PM PST
Moon 3:45 AM PST (3/8) 2:55 PM PST (3/8)
Length of Visible Light 12h 33m
Length of Day
11h 43m
Waning Crescent, 11% of the Moon is Illuminated
Mar 8
Waning Crescent
Mar 11
New
Mar 19
First Quarter
Mar 27
Full
Apr 2
Last Quarter

Hourly Weather History & Observations

Time (PST) Temp. Dew Point Humidity Pressure Visibility Wind Dir Wind Speed Gust Speed Precip Events Conditions
12:53 AM 55.0 °F 37.0 °F 51% 29.81 in 10.0 mi Calm Calm - N/A   Overcast
1:53 AM 55.0 °F 37.0 °F 51% 29.79 in 10.0 mi Calm Calm - 0.00 in Rain Light Rain
2:53 AM 54.0 °F 42.1 °F 64% 29.77 in 10.0 mi South 4.6 mph - 0.00 in Rain Light Rain
3:53 AM 53.1 °F 44.1 °F 71% 29.75 in 10.0 mi Calm Calm - 0.00 in   Overcast
4:53 AM 52.0 °F 45.0 °F 77% 29.75 in 10.0 mi Calm Calm - 0.00 in Rain Light Rain
5:53 AM 51.1 °F 45.0 °F 80% 29.78 in 10.0 mi Variable 3.5 mph - 0.03 in Rain Light Rain
6:53 AM 48.9 °F 41.0 °F 74% 29.79 in 10.0 mi NW 9.2 mph 20.7 mph 0.00 in   Overcast
7:53 AM 51.1 °F 37.9 °F 61% 29.78 in 10.0 mi NNW 9.2 mph - N/A   Mostly Cloudy
8:53 AM 54.0 °F 37.9 °F 55% 29.80 in 10.0 mi Calm Calm - N/A   Mostly Cloudy
9:53 AM 57.9 °F 37.9 °F 47% 29.81 in 10.0 mi NE 4.6 mph - N/A   Scattered Clouds
10:53 AM 60.1 °F 34.0 °F 38% 29.83 in 10.0 mi ENE 4.6 mph - N/A   Scattered Clouds
11:53 AM 62.1 °F 32.0 °F 32% 29.81 in 10.0 mi NNW 12.7 mph 20.7 mph 0.00 in   Scattered Clouds
12:53 PM 61.0 °F 30.0 °F 31% 29.79 in 10.0 mi East 4.6 mph - N/A   Scattered Clouds
1:28 PM 59.0 °F 35.6 °F 42% 29.79 in 10.0 mi NW 20.7 mph 32.2 mph 0.01 in   Mostly Cloudy
1:53 PM 55.9 °F 35.1 °F 45% 29.81 in 10.0 mi NW 24.2 mph 34.5 mph 0.01 in   Mostly Cloudy
2:53 PM 57.9 °F 32.0 °F 37% 29.81 in 10.0 mi North 6.9 mph - N/A   Mostly Cloudy
3:53 PM 55.9 °F 33.1 °F 42% 29.82 in 10.0 mi NNW 11.5 mph - N/A   Partly Cloudy
4:53 PM 57.0 °F 32.0 °F 39% 29.82 in 10.0 mi NNW 8.1 mph - N/A   Mostly Cloudy
5:53 PM 55.0 °F 32.0 °F 42% 29.84 in 10.0 mi NNW 4.6 mph - N/A   Partly Cloudy
6:53 PM 54.0 °F 35.1 °F 49% 29.86 in 10.0 mi NW 8.1 mph - N/A   Scattered Clouds
7:53 PM 52.0 °F 36.0 °F 54% 29.88 in 10.0 mi Variable 5.8 mph - N/A   Clear
8:53 PM 51.1 °F 37.0 °F 59% 29.92 in 10.0 mi ESE 3.5 mph - N/A   Partly Cloudy
9:53 PM 50.0 °F 37.0 °F 61% 29.93 in 10.0 mi SSE 5.8 mph - N/A   Clear
10:53 PM 48.0 °F 37.9 °F 68% 29.94 in 10.0 mi Calm Calm - N/A   Clear
11:53 PM 51.1 °F 37.0 °F 59% 29.94 in 10.0 mi NW 3.5 mph - N/A   Clear